ON7HN-2 Weather Reports


time (UTC)temp
C
wind
direction
speed
KPH
gust
KPH
rain 1hr
cm
rain 24hr
cm
rain mn
cm
humidity
%
barometer
mb
20260902000511 14 289 0.0 1.6 0.00 0.00 0.00 84 1019.9
20260902000005 13 289 1.6 3.2 0.00 0.00 0.00 84 1019.6
20260901235505 13 195 1.6 1.6 0.00 0.00 0.00 85 1020.1
20260901235006 14 225 1.6 3.2 0.00 0.00 0.00 84 1020.2
20260901234505 14 211 1.6 3.2 0.00 0.00 0.00 84 1019.7
20260901234006 14 204 1.6 3.2 0.00 0.00 0.00 83 1019.8
20260901233506 14 357 0.0 1.6 0.00 0.00 0.00 83 1019.7
20260901233006 14 349 0.0 0.0 0.00 0.00 0.00 83 1019.8
20260901232506 14 265 1.6 3.2 0.00 0.00 0.00 84 1019.7
20260901232005 14 184 3.2 3.2 0.00 0.00 0.00 83 1019.8
20260901231505 14 342 0.0 1.6 0.00 0.00 0.00 83 1019.8
20260901231010 14 203 1.6 3.2 0.00 0.00 0.00 83 1020.1
20260901230506 14 354 0.0 0.0 0.00 0.00 0.00 83 1019.6
20260901230010 14 327 1.6 1.6 0.00 0.00 0.00 83 1020.1
20260901225506 14 348 1.6 3.2 0.00 0.00 0.00 83 1019.9
20260901225006 14 356 0.0 1.6 0.00 0.00 0.00 83 1020.1
20260901224505 14 23 0.0 0.0 0.00 0.00 0.00 83 1019.8
20260901224005 14 9 0.0 0.0 0.00 0.00 0.00 82 1019.8
20260901223505 14 352 0.0 1.6 0.00 0.00 0.00 82 1019.9
20260901223006 14 36 0.0 1.6 0.00 0.00 0.00 82 1020.2
20260901222506 14 18 0.0 1.6 0.00 0.00 0.00 82 1019.8
20260901222005 15 43 0.0 1.6 0.00 0.00 0.00 81 1020.2
20260901221505 15 356 0.0 0.0 0.00 0.00 0.00 81 1019.9
20260901221006 15 354 0.0 0.0 0.00 0.00 0.00 80 1020.1
20260901220505 15 15 0.0 0.0 0.00 0.00 0.00 80 1020.1
20260901220006 15 355 0.0 1.6 0.00 0.00 0.00 80 1020.1
20260901215506 15 347 0.0 1.6 0.00 0.00 0.00 80 1019.9
20260901215006 15 355 0.0 0.0 0.00 0.00 0.00 80 1019.9
20260901214506 15 343 0.0 1.6 0.00 0.00 0.00 80 1020.4
20260901214005 15 30 0.0 1.6 0.00 0.00 0.00 80 1019.9
20260901213510 15 337 0.0 1.6 0.00 0.00 0.00 79 1020.1
20260901213006 15 52 1.6 1.6 0.00 0.00 0.00 79 1019.9
20260901212506 15 199 1.6 1.6 0.00 0.00 0.00 78 1020.1
20260901212011 15 338 0.0 1.6 0.00 0.00 0.00 78 1020.1
20260901211510 15 351 0.0 1.6 0.00 0.00 0.00 77 1020.1
20260901211006 15 177 1.6 1.6 0.00 0.00 0.00 77 1019.9
20260901210506 15 198 1.6 3.2 0.00 0.00 0.00 78 1020.1
20260901210006 16 191 1.6 1.6 0.00 0.00 0.00 77 1020.3
20260901205506 16 6 0.0 1.6 0.00 0.00 0.00 76 1020.2
20260901205005 16 15 0.0 1.6 0.00 0.00 0.00 76 1020.1
20260901204505 16 6 0.0 0.0 0.00 0.00 0.00 76 1020.2
20260901204006 16 349 0.0 0.0 0.00 0.00 0.00 76 1020.5
20260901203510 16 19 0.0 0.0 0.00 0.00 0.00 76 1020.3
20260901203005 16 358 0.0 0.0 0.00 0.00 0.00 76 1020.3
20260901202505 16 13 0.0 0.0 0.00 0.00 0.00 76 1020.4
20260901202010 16 18 0.0 0.0 0.00 0.00 0.00 75 1020.5
20260901201505 16 359 0.0 0.0 0.00 0.00 0.00 75 1020.5
20260901201006 16 14 0.0 0.0 0.00 0.00 0.00 75 1020.4
20260901200506 16 351 0.0 1.6 0.00 0.00 0.00 75 1020.4
20260901200005 17 7 0.0 0.0 0.00 0.00 0.00 74 1020.4
20260901195511 17 359 0.0 0.0 0.00 0.00 0.00 74 1020.2
20260901195006 17 0 0.0 1.6 0.00 0.00 0.00 73 1020.3
20260901194510 17 4 0.0 0.0 0.00 0.00 0.00 74 1020.1
20260901194006 17 14 0.0 0.0 0.00 0.00 0.00 73 1020.2
20260901193505 17 3 0.0 0.0 0.00 0.00 0.00 73 1020.1
20260901193005 17 5 0.0 1.6 0.00 0.00 0.00 72 1019.9
20260901192506 17 8 0.0 0.0 0.00 0.00 0.00 73 1020.1
20260901192006 17 3 0.0 0.0 0.00 0.00 0.00 72 1020.1
20260901191505 17 18 0.0 0.0 0.00 0.00 0.00 72 1019.9
20260901191006 17 8 0.0 0.0 0.00 0.00 0.00 72 1019.7
20260901190505 17 5 0.0 0.0 0.00 0.00 0.00 73 1020.2
20260901190005 17 358 0.0 0.0 0.00 0.00 0.00 72 1019.8
20260901185506 17 341 0.0 0.0 0.00 0.00 0.00 72 1020.1
20260901185006 17 359 1.6 1.6 0.00 0.00 0.00 71 1019.8
20260901184505 17 351 0.0 1.6 0.00 0.00 0.00 72 1019.8
20260901184005 18 358 1.6 1.6 0.00 0.00 0.00 70 1019.6
20260901183506 18 2 0.0 1.6 0.00 0.00 0.00 68 1019.6
20260901183010 18 359 1.6 3.2 0.00 0.00 0.00 67 1019.7
20260901182506 18 348 1.6 3.2 0.00 0.00 0.00 67 1019.6
20260901182006 18 26 1.6 3.2 0.00 0.00 0.00 61 1019.6
20260901181505 19 342 1.6 1.6 0.00 0.00 0.00 60 1019.6
20260901181011 19 271 1.6 1.6 0.00 0.00 0.00 60 1019.4
20260901180511 19 347 1.6 1.6 0.00 0.00 0.00 59 1019.5
20260901180006 20 337 1.6 3.2 0.00 0.00 0.00 59 1019.6
20260901175510 20 282 1.6 3.2 0.00 0.00 0.00 58 1019.6
20260901175006 20 9 0.0 1.6 0.00 0.00 0.00 58 1019.4
20260901174510 20 359 0.0 1.6 0.00 0.00 0.00 58 1019.3
20260901174008 20 359 0.0 3.2 0.00 0.00 0.00 58 1019.4
20260901173505 20 359 0.0 1.6 0.00 0.00 0.00 57 1019.5
20260901173006 20 2 0.0 1.6 0.00 0.00 0.00 56 1019.5
20260901172506 21 2 3.2 4.8 0.00 0.00 0.00 55 1019.6
20260901172006 21 306 3.2 3.2 0.00 0.00 0.00 54 1019.5
20260901171506 21 220 3.2 4.8 0.00 0.00 0.00 55 1019.6
20260901171006 21 328 1.6 1.6 0.00 0.00 0.00 56 1019.5
20260901170510 20 287 3.2 4.8 0.00 0.00 0.00 56 1019.7
20260901170011 20 213 3.2 4.8 0.00 0.00 0.00 56 1019.6
20260901165506 21 298 4.8 8.0 0.00 0.00 0.00 55 1019.6
20260901165005 21 126 0.0 1.6 0.00 0.00 0.00 57 1019.6
20260901164510 21 263 1.6 3.2 0.00 0.00 0.00 55 1019.6
20260901164005 21 357 1.6 3.2 0.00 0.00 0.00 55 1019.7
20260901163506 21 317 3.2 3.2 0.00 0.00 0.00 53 1019.6
20260901163006 21 209 3.2 4.8 0.00 0.00 0.00 53 1019.6
20260901162510 21 257 6.4 8.0 0.00 0.00 0.00 52 1019.6
20260901162010 21 21 1.6 1.6 0.00 0.00 0.00 52 1019.5
20260901161506 22 329 3.2 4.8 0.00 0.00 0.00 52 1019.3
20260901161005 22 270 3.2 4.8 0.00 0.00 0.00 51 1019.5
20260901160505 22 189 1.6 3.2 0.00 0.00 0.00 52 1019.3
20260901160006 22 283 3.2 4.8 0.00 0.00 0.00 54 1019.6
20260901155505 21 294 3.2 4.8 0.00 0.00 0.00 54 1019.5
20260901155005 21 280 3.2 6.4 0.00 0.00 0.00 53 1019.5
20260901154505 22 5 1.6 3.2 0.00 0.00 0.00 53 1019.4
20260901154006 22 344 3.2 6.4 0.00 0.00 0.00 51 1019.4
20260901153506 22 258 3.2 4.8 0.00 0.00 0.00 50 1019.6
20260901153005 22 276 4.8 6.4 0.00 0.00 0.00 52 1019.3
20260901152506 22 324 4.8 6.4 0.00 0.00 0.00 52 1019.5
20260901152005 22 14 3.2 4.8 0.00 0.00 0.00 53 1019.2
20260901151505 22 20 1.6 3.2 0.00 0.00 0.00 54 1019.4
20260901151011 22 339 1.6 3.2 0.00 0.00 0.00 53 1019.3
20260901150505 22 344 3.2 4.8 0.00 0.00 0.00 53 1019.2
20260901150005 22 210 3.2 6.4 0.00 0.00 0.00 54 1019.4
20260901145505 22 175 1.6 3.2 0.00 0.00 0.00 55 1019.4
20260901145006 22 276 3.2 4.8 0.00 0.00 0.00 53 1019.2
20260901144510 23 258 3.2 4.8 0.00 0.00 0.00 53 1019.2
20260901144006 22 340 3.2 6.4 0.00 0.00 0.00 55 1019.6
20260901143505 22 298 3.2 6.4 0.00 0.00 0.00 53 1019.6
20260901143006 22 17 6.4 8.0 0.00 0.00 0.00 54 1019.5
20260901142506 22 21 0.0 1.6 0.00 0.00 0.00 56 1019.5
20260901142005 21 204 1.6 3.2 0.00 0.00 0.00 62 1019.4
20260901141505 21 5 0.0 1.6 0.00 0.00 0.00 58 1019.6
20260901141005 21 343 1.6 3.2 0.00 0.00 0.00 61 1019.6
20260901140505 22 250 8.0 12.9 0.00 0.00 0.00 58 1019.6
20260901140005 22 291 1.6 3.2 0.00 0.00 0.00 58 1019.5
20260901135506 22 341 3.2 4.8 0.00 0.00 0.00 58 1019.6
20260901135005 22 293 3.2 6.4 0.00 0.00 0.00 56 1019.6
20260901134506 22 294 6.4 6.4 0.00 0.00 0.00 58 1019.7
20260901134006 22 326 4.8 6.4 0.00 0.00 0.00 58 1019.9
20260901133506 22 270 4.8 8.0 0.00 0.00 0.00 57 1019.6
20260901133006 21 341 1.6 4.8 0.00 0.00 0.00 62 1019.6
20260901132505 21 349 0.0 1.6 0.00 0.00 0.00 60 1019.7
20260901132010 22 332 1.6 4.8 0.00 0.00 0.00 58 1019.9
20260901131505 22 292 3.2 6.4 0.00 0.00 0.00 57 1019.6
20260901131005 21 0 3.2 4.8 0.00 0.00 0.00 59 1019.7
20260901130510 21 271 4.8 6.4 0.00 0.00 0.00 62 1019.9
20260901130005 22 348 1.6 3.2 0.00 0.00 0.00 60 1019.7
20260901125505 22 298 4.8 8.0 0.00 0.00 0.00 60 1019.6
20260901125006 22 13 1.6 3.2 0.00 0.00 0.00 60 1019.7
20260901124510 22 234 3.2 4.8 0.00 0.00 0.00 59 1019.6
20260901124006 22 44 3.2 4.8 0.00 0.00 0.00 62 1019.8
20260901123510 22 337 1.6 3.2 0.00 0.00 0.00 62 1019.6
20260901123006 21 325 3.2 4.8 0.00 0.00 0.00 63 1020.1
20260901122505 21 324 3.2 4.8 0.00 0.00 0.00 65 1019.6
20260901122005 21 349 6.4 12.9 0.00 0.00 0.00 64 1020.2
20260901121511 21 6 4.8 9.7 0.00 0.00 0.00 62 1019.8
20260901121005 21 356 3.2 4.8 0.00 0.00 0.00 64 1019.7
20260901120511 21 250 4.8 8.0 0.00 0.00 0.00 63 1019.9
20260901120006 21 310 6.4 9.7 0.00 0.00 0.00 65 1019.7
20260901115506 20 312 0.0 3.2 0.00 0.00 0.00 67 1019.8
20260901115006 20 306 11.3 16.1 0.00 0.00 0.00 67 1020.1
20260901114506 20 39 3.2 4.8 0.00 0.00 0.00 66 1019.8
20260901114010 21 259 3.2 6.4 0.00 0.00 0.00 65 1019.6
20260901113506 21 295 4.8 6.4 0.00 0.00 0.00 67 1019.9
20260901113006 21 214 8.0 12.9 0.00 0.00 0.00 66 1019.7
20260901112506 21 309 9.7 9.7 0.00 0.00 0.00 67 1019.9
20260901112010 21 234 3.2 4.8 0.00 0.00 0.00 60 1019.7
20260901111506 21 244 6.4 8.0 0.00 0.00 0.00 60 1019.8
20260901111011 20 299 1.6 1.6 0.00 0.00 0.00 62 1019.6
20260901110506 21 227 6.4 9.7 0.00 0.00 0.00 60 1019.7
20260901110005 21 257 1.6 3.2 0.00 0.00 0.00 64 1019.9
20260901105505 21 173 6.4 8.0 0.00 0.00 0.00 65 1019.9
20260901105005 20 160 3.2 6.4 0.00 0.00 0.00 65 1019.8
20260901104506 20 219 3.2 4.8 0.00 0.00 0.00 69 1019.8
20260901104006 20 286 3.2 4.8 0.00 0.00 0.00 69 1019.8
20260901103505 20 242 3.2 6.4 0.00 0.00 0.00 70 1019.8
20260901103005 20 350 4.8 6.4 0.00 0.00 0.00 69 1019.8
20260901102505 20 335 1.6 3.2 0.00 0.00 0.00 68 1019.6
20260901102005 18 23 0.0 0.0 0.00 0.00 0.00 73 1019.6
20260901101506 18 315 3.2 4.8 0.00 0.00 0.00 75 1019.6
20260901101006 18 359 3.2 4.8 0.00 0.00 0.00 76 1019.9
20260901100506 19 310 6.4 8.0 0.00 0.00 0.00 74 1019.7
20260901100005 19 288 0.0 3.2 0.00 0.00 0.00 72 1019.6
20260901095506 21 200 3.2 4.8 0.00 0.00 0.00 71 1019.8
20260901095006 21 328 1.6 4.8 0.00 0.00 0.00 68 1019.7
20260901094505 21 271 4.8 6.4 0.00 0.00 0.00 67 1019.9
20260901094006 20 39 1.6 3.2 0.00 0.00 0.00 68 1019.8
20260901093506 21 275 1.6 4.8 0.00 0.00 0.00 69 1019.8
20260901093005 20 347 0.0 1.6 0.00 0.00 0.00 71 1019.7
20260901092505 20 35 3.2 4.8 0.00 0.05 0.00 71 1019.8
20260901092005 20 261 3.2 4.8 0.00 0.05 0.00 70 1019.7
20260901091506 19 0 1.6 3.2 0.00 0.05 0.00 74 1019.6
20260901091006 18 79 1.6 3.2 0.00 0.05 0.00 75 1019.8
20260901090505 19 27 4.8 6.4 0.00 0.05 0.00 74 1019.6
20260901090011 20 339 3.2 3.2 0.00 0.05 0.00 74 1019.6
20260901085511 19 9 1.6 3.2 0.00 0.05 0.00 75 1019.6
20260901085005 20 281 3.2 3.2 0.00 0.05 0.00 75 1019.6
20260901084505 20 314 3.2 3.2 0.00 0.05 0.00 75 1019.4
20260901084010 19 19 0.0 1.6 0.00 0.05 0.00 78 1019.4
20260901083506 20 276 1.6 3.2 0.00 0.05 0.00 77 1019.5
20260901083006 19 311 4.8 6.4 0.00 0.05 0.00 78 1019.4
20260901082505 19 323 0.0 1.6 0.00 0.05 0.00 78 1019.3
20260901082005 18 274 3.2 3.2 0.00 0.05 0.00 79 1019.4
20260901081506 18 115 0.0 1.6 0.00 0.05 0.00 81 1019.5
20260901081006 18 219 3.2 4.8 0.00 0.05 0.00 80 1019.5
20260901080505 18 18 0.0 1.6 0.00 0.05 0.00 81 1019.3
20260901080006 18 270 0.0 1.6 0.00 0.05 0.00 81 1019.2
20260901075505 18 304 0.0 3.2 0.00 0.05 0.00 83 1019.4
20260901075006 18 352 1.6 1.6 0.00 0.05 0.00 84 1019.2
20260901074506 18 292 1.6 3.2 0.00 0.05 0.00 84 1019.1
20260901074006 17 10 0.0 1.6 0.00 0.05 0.00 85 1019.2
20260901073505 17 359 1.6 3.2 0.00 0.05 0.00 87 1019.1
20260901073006 17 253 1.6 3.2 0.00 0.05 0.00 88 1019.1
20260901072506 17 282 3.2 4.8 0.00 0.05 0.00 87 1019.0
20260901072005 17 197 3.2 3.2 0.00 0.05 0.00 87 1019.3
20260901071506 17 279 1.6 3.2 0.00 0.05 0.00 88 1018.9
20260901071006 16 346 0.0 1.6 0.00 0.05 0.00 90 1018.8
20260901070505 16 356 0.0 1.6 0.00 0.05 0.00 91 1018.8
20260901070011 16 358 0.0 1.6 0.00 0.05 0.00 91 1018.7
20260901065505 16 2 0.0 0.0 0.00 0.05 0.00 92 1018.7
20260901065010 16 9 0.0 1.6 0.00 0.05 0.00 92 1018.4
20260901064506 16 274 3.2 3.2 0.00 0.05 0.00 93 1018.7
20260901064005 16 337 0.0 1.6 0.00 0.05 0.00 93 1018.7
20260901063506 16 23 0.0 0.0 0.00 0.05 0.00 94 1018.7
20260901063011 16 14 0.0 0.0 0.00 0.05 0.00 94 1018.7
20260901062506 15 317 0.0 1.6 0.00 0.05 0.00 94 1018.6
20260901062005 15 4 0.0 0.0 0.00 0.05 0.00 95 1018.7
20260901061506 15 173 0.0 0.0 0.00 0.05 0.00 95 1018.5
20260901061005 15 6 0.0 0.0 0.00 0.05 0.00 96 1018.7
20260901060505 15 346 1.6 1.6 0.00 0.08 0.00 96 1018.6
20260901060006 15 346 0.0 0.0 0.00 0.08 0.00 96 1018.7
20260901055511 15 351 0.0 1.6 0.00 0.10 0.00 96 1018.3
20260901055005 15 337 0.0 1.6 0.00 0.13 0.00 96 1018.2
20260901054505 15 355 0.0 0.0 0.00 0.23 0.00 96 1018.3
20260901054005 15 6 0.0 0.0 0.00 0.28 0.00 96 1018.0
20260901053505 15 6 0.0 0.0 0.00 0.28 0.00 96 1018.0
20260901053006 15 2 0.0 0.0 0.00 0.30 0.00 96 1018.2
20260901052510 15 1 0.0 0.0 0.00 0.33 0.00 96 1018.0
20260901052005 15 354 0.0 0.0 0.00 0.33 0.00 96 1018.2
20260901051505 15 294 1.6 1.6 0.00 0.33 0.00 96 1017.8
20260901051010 15 8 0.0 0.0 0.00 0.33 0.00 96 1018.1
20260901050505 15 346 0.0 0.0 0.00 0.33 0.00 96 1017.8
20260901050005 15 149 0.0 0.0 0.00 0.33 0.00 96 1017.8
20260901045505 15 3 0.0 0.0 0.00 0.33 0.00 96 1017.6
20260901045010 15 347 0.0 0.0 0.00 0.33 0.00 96 1017.7
20260901044507 15 324 0.0 1.6 0.00 0.33 0.00 96 1017.5
20260901044005 15 4 0.0 1.6 0.00 0.33 0.00 96 1017.8
20260901043510 15 298 3.2 3.2 0.00 0.33 0.00 96 1017.7
20260901043010 15 12 0.0 0.0 0.00 0.33 0.00 96 1017.6
20260901042510 15 355 0.0 1.6 0.00 0.33 0.00 96 1017.5
20260901042006 15 17 0.0 0.0 0.00 0.33 0.00 96 1017.4
20260901041505 15 342 0.0 1.6 0.00 0.33 0.00 96 1017.6
20260901041006 15 41 1.6 3.2 0.00 0.33 0.00 96 1017.3
20260901040506 15 7 0.0 1.6 0.00 0.33 0.00 96 1017.4
20260901040005 15 333 1.6 3.2 0.00 0.33 0.00 96 1017.4
20260901035505 15 269 1.6 1.6 0.00 0.33 0.00 95 1017.3
20260901035005 15 159 1.6 1.6 0.00 0.33 0.00 95 1017.3
20260901034505 15 226 1.6 3.2 0.00 0.33 0.00 95 1017.3
20260901034010 15 257 3.2 3.2 0.00 0.33 0.00 95 1017.1
20260901033511 15 44 3.2 4.8 0.00 0.33 0.00 95 1017.2
20260901033005 15 39 0.0 0.0 0.00 0.33 0.00 95 1017.2
20260901032511 15 17 0.0 0.0 0.00 0.33 0.00 95 1017.2
20260901032006 15 340 0.0 1.6 0.00 0.33 0.00 95 1017.3
20260901031506 15 268 0.0 1.6 0.00 0.33 0.00 95 1017.3
20260901031006 15 357 0.0 1.6 0.00 0.33 0.00 95 1017.4
20260901030505 15 342 0.0 1.6 0.00 0.33 0.00 95 1017.4
20260901030006 15 252 0.0 1.6 0.00 0.33 0.00 95 1017.4
20260901025505 15 2 0.0 0.0 0.00 0.33 0.00 95 1017.4
20260901025005 15 109 3.2 4.8 0.00 0.33 0.00 95 1017.0
20260901024506 15 222 1.6 3.2 0.00 0.33 0.00 95 1017.1
20260901024005 15 6 0.0 1.6 0.00 0.33 0.00 95 1017.4
20260901023505 16 26 0.0 1.6 0.00 0.33 0.00 94 1017.3
20260901023006 16 211 3.2 4.8 0.00 0.33 0.00 95 1017.0
20260901022511 16 239 0.0 1.6 0.00 0.33 0.00 94 1017.1
20260901022010 16 238 1.6 3.2 0.00 0.33 0.00 94 1017.4
20260901021511 16 213 1.6 3.2 0.00 0.33 0.00 94 1017.2
20260901021010 16 342 0.0 0.0 0.00 0.33 0.00 94 1017.3
20260901020505 16 347 3.2 3.2 0.00 0.33 0.00 94 1017.1
20260901020005 16 18 0.0 0.0 0.00 0.33 0.00 94 1017.3
20260901015505 16 226 1.6 3.2 0.00 0.33 0.00 94 1017.2
20260901015011 16 281 1.6 3.2 0.00 0.33 0.00 94 1017.0
20260901014505 16 187 1.6 3.2 0.00 0.33 0.00 94 1017.0
20260901014005 16 235 3.2 3.2 0.00 0.33 0.00 94 1017.2
20260901013506 16 254 0.0 1.6 0.00 0.33 0.00 94 1017.2
20260901013006 16 343 1.6 1.6 0.00 0.33 0.00 94 1016.8
20260901012505 16 301 3.2 4.8 0.00 0.33 0.00 94 1017.2
20260901012006 16 229 0.0 1.6 0.00 0.33 0.00 94 1016.8
20260901011506 16 185 0.0 0.0 0.00 0.33 0.00 94 1017.2
20260901011005 16 13 0.0 1.6 0.00 0.33 0.00 94 1017.1
20260901010505 16 188 1.6 3.2 0.00 0.33 0.00 94 1017.2
20260901010005 16 348 3.2 3.2 0.00 0.33 0.00 94 1017.1
20260901005510 16 241 3.2 3.2 0.00 0.33 0.00 93 1017.1
20260901005005 16 338 0.0 1.6 0.00 0.33 0.00 93 1017.0
20260901004506 16 328 1.6 3.2 0.00 0.33 0.00 93 1017.2
20260901004005 16 347 1.6 3.2 0.00 0.33 0.00 93 1017.1
20260901003505 16 337 0.0 0.0 0.00 0.33 0.00 93 1017.1
20260901003005 16 344 0.0 0.0 0.00 0.33 0.00 93 1017.0
20260901002505 16 15 0.0 1.6 0.00 0.33 0.00 92 1017.2
20260901002010 16 338 4.8 6.4 0.00 0.33 0.00 92 1017.0
20260901001506 16 346 0.0 1.6 0.00 0.33 0.00 92 1017.1
20260901001005 16 279 4.8 6.4 0.00 0.33 0.00 92 1017.1